Weather History for Dover AFB, DE

Change the Weather History Date:

Wednesday, February 19, 2014

  Actual Average Record
Temperature  
Mean Temperature 45 °F -  
Max Temperature 58 °F 49 °F 74 °F (1961)
Min Temperature 32 °F 31 °F 10 °F (1979)
Degree Days  
Heating Degree Days 20    
Moisture  
Dew Point 45 °F    
Average Humidity 93    
Maximum Humidity 100    
Minimum Humidity 59    
Precipitation  
Precipitation 0.23 in - - ()
Sea Level Pressure  
Sea Level Pressure 29.85 in    
Wind  
Wind Speed 11 mph (SW)    
Max Wind Speed 22 mph    
Max Gust Speed 29 mph    
Visibility 9 miles    
Events Rain    
Averages and records for this station are not official NWS values.
T = Trace of Precipitation, MM = Missing Value Source: NWS Daily Summary

Daily Weather History Graph

Daily Weather History Graph

Search for Another Location

Airport:

Trip Planner

Search our weather history database for the weather conditions in past years. The results will help you decide how hot, cold, wet, or windy it might be!

Date:

Astronomy

Feb. 19, 2014 Rise Set
Actual Time 6:48 AM EST 5:43 PM EST
Civil Twilight 6:21 AM EST 6:10 PM EST
Nautical Twilight 5:50 AM EST 6:41 PM EST
Astronomical Twilight 5:19 AM EST 7:12 PM EST
Moon 10:32 PM EST (2/19) 8:55 AM EST (2/19)
Length of Visible Light 11h 49m
Length of Day
10h 55m
Waning Gibbous, 80% of the Moon is Illuminated
Feb 19
Waning Gibbous
Feb 22
Last Quarter
Mar 1
New
Mar 8
First Quarter
Mar 16
Full

Hourly Weather History & Observations

Time (EST) Temp. Windchill Dew Point Humidity Pressure Visibility Wind Dir Wind Speed Gust Speed Precip Events Conditions
12:58 AM 36.3 °F 30.8 °F 35.2 °F 96% 30.08 in 10.0 mi East 6.9 mph - N/A   Clear
1:58 AM 33.8 °F 28.6 °F 33.6 °F 99% 30.09 in 10.0 mi ESE 5.8 mph - N/A   Clear
2:58 AM 35.1 °F 27.9 °F 34.7 °F 99% 30.05 in 10.0 mi ESE 9.2 mph - N/A   Clear
3:58 AM 32.2 °F 25.0 °F 32.2 °F 100% 30.03 in 10.0 mi ESE 8.1 mph - N/A   Clear
4:58 AM 34.9 °F 26.6 °F 34.7 °F 99% 29.97 in 10.0 mi ESE 11.5 mph - N/A   Clear
5:58 AM 32.2 °F 26.7 °F 31.8 °F 99% 29.93 in 10.0 mi SE 5.8 mph - N/A   Clear
6:58 AM 33.4 °F 27.3 °F 29.7 °F 86% 29.91 in 10.0 mi SSE 6.9 mph - N/A   Clear
7:58 AM 39.4 °F 33.2 °F 33.8 °F 80% 29.90 in 10.0 mi SSE 9.2 mph - N/A   Scattered Clouds
8:58 AM 47.1 °F - 36.1 °F 66% 29.86 in 10.0 mi SSE 11.5 mph - N/A   Overcast
9:42 AM 50.0 °F - 41.0 °F 71% 29.83 in 10.0 mi South 21.9 mph - N/A Rain Light Rain
9:58 AM 47.3 °F - 46.6 °F 97% 29.83 in 9.0 mi South 21.9 mph 28.8 mph 0.01 in Rain Light Rain
10:58 AM 48.0 °F - 48.0 °F 100% 29.82 in 7.0 mi South 13.8 mph - 0.10 in Rain Light Rain
11:23 AM 50.0 °F - 50.0 °F 100% 29.80 in 7.0 mi SSW 15.0 mph - N/A Rain Light Rain
11:28 AM 50.0 °F - 50.0 °F 100% 29.79 in 5.0 mi SSW 19.6 mph 23.0 mph N/A Rain Rain
11:58 AM 50.7 °F - 50.7 °F 100% 29.78 in 7.0 mi SSW 17.3 mph 24.2 mph 0.08 in Rain Light Rain
12:03 PM 50.0 °F - 50.0 °F 100% 29.76 in 7.0 mi SSW 15.0 mph - N/A Rain Light Rain
12:18 PM 50.0 °F - 50.0 °F 100% 29.75 in 10.0 mi SSW 13.8 mph - N/A Rain Light Rain
12:33 PM 51.8 °F - 51.8 °F 100% 29.73 in 10.0 mi SSW 15.0 mph - N/A   Overcast
12:58 PM 52.5 °F - 52.5 °F 100% 29.73 in 10.0 mi SW 16.1 mph - 0.00 in   Overcast
1:58 PM 53.8 °F - 53.8 °F 100% 29.71 in 10.0 mi SW 12.7 mph 23.0 mph N/A   Overcast
2:13 PM 53.6 °F - 53.6 °F 100% 29.70 in 10.0 mi SW 15.0 mph 21.9 mph N/A   Overcast
2:23 PM 55.4 °F - 55.4 °F 100% 29.70 in 10.0 mi WSW 12.7 mph 24.2 mph N/A   Overcast
2:58 PM 56.3 °F - 55.9 °F 99% 29.71 in 10.0 mi WSW 12.7 mph - N/A   Overcast
3:13 PM 57.2 °F - 57.2 °F 100% 29.70 in 10.0 mi WSW 10.4 mph - N/A   Scattered Clouds
3:58 PM 58.8 °F - 58.3 °F 98% 29.71 in 10.0 mi SW 8.1 mph - N/A   Clear
4:41 PM 48.2 °F - 48.2 °F 100% 29.76 in 9.0 mi NNW 18.4 mph - N/A Rain Light Rain
4:56 PM 46.4 °F 41.1 °F 46.4 °F 100% 29.78 in 7.0 mi NW 11.5 mph - N/A Rain Light Rain
4:58 PM 46.2 °F 41.2 °F 46.2 °F 100% 29.79 in 7.0 mi NW 10.4 mph - 0.00 in Rain Light Rain
5:03 PM 46.4 °F 41.5 °F 46.4 °F 100% 29.78 in 6.0 mi NW 10.4 mph - N/A Rain Light Rain
5:30 PM 48.2 °F - 48.2 °F 100% 29.79 in 7.0 mi West 4.6 mph - N/A   Mostly Cloudy
5:58 PM 47.5 °F - 47.5 °F 100% 29.82 in 6.0 mi WSW 4.6 mph - 0.04 in   Scattered Clouds
6:18 PM 46.4 °F 45.2 °F 46.4 °F 100% 29.83 in 7.0 mi West 3.5 mph - N/A   Clear
6:23 PM 46.4 °F 44.3 °F 46.4 °F 100% 29.83 in 6.0 mi West 4.6 mph - N/A   Clear
6:58 PM 46.6 °F - 46.6 °F 100% 29.87 in 9.0 mi West 8.1 mph - N/A   Clear
7:58 PM 49.1 °F - 47.5 °F 94% 29.93 in 10.0 mi West 13.8 mph - N/A   Clear
8:58 PM 49.5 °F - 37.2 °F 63% 29.99 in 10.0 mi West 16.1 mph - N/A   Clear
9:58 PM 48.7 °F - 34.9 °F 59% 30.05 in 10.0 mi West 15.0 mph - N/A   Clear
10:58 PM 47.1 °F - 34.5 °F 62% 30.09 in 10.0 mi West 10.4 mph - N/A   Clear
11:58 PM 45.7 °F 39.1 °F 33.3 °F 62% 30.12 in 10.0 mi WNW 15.0 mph 25.3 mph N/A   Clear